Tracking 25711 objects as of 22-May-2022
HD Live streaming from Space Station
objects crossing your sky now

FLOCK 3R 13

Track FLOCK 3R 13 now!
10-day predictions
FLOCK 3R 13 is classified as:


NORAD ID: 43750
Int'l Code: 2018-096AH
Perigee: 414.8 km
Apogee: 432.3 km
Inclination: 97.3 °
Period: 92.9 minutes
Semi major axis: 6794 km
RCS: Unknown
Launch date: November 29, 2018
Source: United States (US)
Launch site: SRIHARIKOTA (SRI)
aabbcc
Your satellite tracking list
Your tracking list is empty




NASA's NSSDC Master Catalog

Two Line Element Set (TLE):
1 43750U 18096AH  22142.27746795  .00091585  00000-0  16088-2 0  9994
2 43750  97.3480 229.7749 0012841 136.8432 223.3828 15.50100284194430
Source of the keplerian elements: AFSPC